Location: Ferris
(32.5340°N, 96.6656°W)
Time: 10:48:33
(UTC+00:00)

Cosmos 2263 Rocket - Pass Details

Date: 11 February 2026
Orbit: 821 x 848 km, 71.0° (Epoch: 8 March)

Event Time Altitude Azimuth Distance (km) Brightness Sun altitude
Rises 12:37:39 0° 337° (NNW) 3,406 5.0 -8.1°
Reaches altitude 10° 12:40:07 10° 335° (NNW) 2,465 4.3 -7.6°
Maximum altitude 12:45:45 72° 252° (WSW) 880 2.2 -6.4°
Drops below altitude 10° 12:51:18 10° 169° (SSE) 2,434 5.0 -5.3°
Sets 12:53:44 0° 167° (SSE) 3,360 5.7 -4.8°
